sat.trackr.live / text

‹ back to catalog

STARLINK-32627

NORAD 62315 · 2024-239Q

PAYLOAD ACTIVE UNKNOWN

§ Identity

Operator
Country
US
Launch date
2024-12-13
Launch site
AFWTR
Launch vehicle
Mass (kg)
RCS (m²)

Purposes: comms

External: N2YO · Heavens-Above · Gunter

§ Orbital elements

Epoch: 2026-05-25T03:09:28.088640Z

Period
94.11 min
Inclination
53.1597°
Eccentricity
0.0001290
Mean motion
15.30201676 rev/d
Perigee alt
474.3 km
Apogee alt
476.1 km
Semi-major
6,853.3 km
B*
3.6510e-4
RAAN
199.0826°
Arg perigee
80.8885°
Mean anomaly
279.2261°
Rev number
8,108

§ Raw data

STARLINK-326271 62315U 24239Q   26145.13157510  .00010470  00000+0  36510-3 0  99972 62315  53.1597 199.0826 0001290  80.8885 279.2261 15.30201676 81080

JSON: /api/v1/satellites/62315 · /tle

For live sub-satellite position, see the globe view (requires WebGL).

§ Visibility from observer

Set your observer location to see the next 7 days of passes ≥ 10°. The values pass through the URL so the page stays shareable.

No JS? Fill the form by hand. The geolocation button needs JavaScript.